SCP
1 1 1 1 1 1 1 1 1 1 1 1 1 1 0 0 0 0 0 0 0 0 0 0 0 0 0 0 0 0 0 0 0 0 0 0 0 0 0 0 0 0 0
1 1 1 1 1 1 1 1 1 1 1 1 1 1 0 0 0 0 0 0 0 0 0 0 0 0 0 0 0 0 0 0 0 0 0 0 0 0 0 0 0 0 0
1 1 1 1 1 1 1 1 1 1 1 1 1 1 1 0 0 0 0 0 0 0 0 0 0 0 0 0 0 0 0 0 0 0 0 0 0 0 0 0 0 0 0
1 1 1 1 1 1 1 1 1 1 1 1 1 1 1 0 0 0 0 0 0 0 0 0 0 0 0 0 0 0 0 0 0 0 0 0 0 0 0 0 0 0 0
1 1 1 1 1 1 1 1 1 1 1 1 1 1 1 1 0 0 0 0 0 0 0 0 0 0 0 0 0 0 0 0 0 0 0 0 0 0 0 0 0 0 0
1 1 1 1 1 1 1 1 1 1 1 1 1 1 1 1 0 0 0 0 0 0 0 0 0 0 0 0 0 0 0 0 0 0 0 0 0 0 0 0 0 0 0
1 1 1 1 1 1 1 1 1 1 1 1 1 1 1 1 0 0 0 0 0 0 0 0 0 0 0 0 0 0 0 0 0 0 0 0 0 0 0 0 0 0 0
1 1 1 1 1 1 1 1 1 1 1 1 1 1 1 1 0 0 0 0 0 0 0 1 0 0 0 0 0 0 0 0 0 0 0 0 0 0 0 0 0 0 0
1 1 1 1 1 1 1 1 1 1 1 1 1 1 1 1 0 0 0 0 0 0 0 0 0 0 0 0 0 0 0 0 0 0 0 0 0 0 0 0 0 0 0
1 1 1 1 1 1 1 1 1 1 1 1 1 1 1 1 0 0 0 0 0 0 0 0 0 0 0 0 0 0 0 0 0 0 0 0 0 0 0 0 0 0 0
1 1 1 1 1 1 1 1 1 1 1 1 1 1 1 0 0 0 0 0 0 0 0 0 0 0 0 0 0 0 0 0 0 0 0 0 0 0 0 0 0 0 0
1 1 1 1 1 1 1 1 1 1 1 1 1 1 0 0 0 0 0 0 0 0 0 0 0 0 0 0 0 0 0 0 0 0 0 0 0 0 0 0 0 0 0
1 1 1 1 1 1 1 1 1 1 1 1 1 0 0 0 0 0 0 0 0 0 0 0 0 0 0 0 0 0 0 0 0 0 0 0 0 0 0 0 0 0 0
1 1 1 1 1 0 0 0 0 0 0 0 0 0 0 0 0 0 0 0 0 0 0 0 0 0 0 0 0 0 0 0 0 0 0 0 0 0 0 0 0 0 0
1 1 0 0 0 0 0 0 0 0 0 0 0 0 0 0 0 0 0 0 0 0 0 0 0 0 0 0 0 0 0 0 0 0 0 0 0 0 0 0 0 0 0
0 0 0 0 0 0 0 0 0 0 0 0 0 0 0 0 0 0 0 0 0 0 0 0 0 0 0 0 0 0 0 0 0 0 0 0 0 0 0 0 0 0 0
0 0 0 0 0 0 0 0 0 0 0 0 0 0 0 0 0 0 0 0 0 0 0 0 0 0 0 0 0 0 0 0 0 0 0 0 0 0 0 0 0 0 0
0 0 0 0 0 0 0 0 0 0 0 0 0 0 0 0 0 0 0 0 0 0 0 0 0 0 0 0 0 0 0 0 0 0 0 0 0 0 0 0 0 0 0
0 0 0 0 0 0 0 0 0 0 0 0 0 0 0 0 0 0 0 0 0 0 0 0 0 0 0 0 0 0 0 0 0 0 0 0 0 0 0 0 0 0 0
0 0 0 0 0 0 0 0 0 0 0 0 0 0 0 0 0 0 0 0 0 0 0 0 0 0 0 0 0 0 0 0 0 0 0 0 0 0 0 0 0 0 0
0 0 0 0 0 0 0 0 0 0 0 0 0 0 0 0 0 0 0 0 0 0 0 0 0 0 0 0 0 0 0 0 0 0 0 0 0 0 0 0 0 0 0
0 0 0 0 0 0 0 0 0 0 0 0 0 0 0 0 0 0 0 0 0 0 0 0 0 0 0 0 0 0 0 0 0 0 0 0 0 0 0 0 0 0 0
0 0 0 0 0 0 0 0 0 0 0 0 0 0 0 0 0 0 0 0 0 0 0 0 0 0 0 0 0 0 0 0 0 0 0 0 0 0 0 0 0 0 0
0 0 0 0 0 0 0 0 0 0 0 0 0 0 0 0 0 0 0 0 0 0 0 0 0 0 0 0 0 0 0 0 0 0 0 0 0 0 0 0 0 0 0
0 0 0 0 0 0 0 0 0 0 0 0 0 0 0 0 0 0 0 0 0 0 0 0 0 0 0 0 0 0 0 0 0 0 0 0 0 0 0 0 0 0 0
0 0 0 0 0 0 0 0 0 0 0 0 0 0 0 0 0 0 0 0 0 0 0 0 0 0 0 0 0 0 0 0 0 0 0 0 0 0 0 0 0 0 0
Wind_Speed
8 8 8 8 8 8 7 7 6 5 5 5 5 4 3 3 3 3 3 2 3 3 2 2 3 3 3 2 2 2 2 2 3 3 2 2 2 3 2 2 2 1 2
8 7 7 7 7 7 7 6 6 6 5 5 4 4 4 3 3 3 3 2 2 2 2 2 3 2 2 3 2 2 2 2 3 3 2 2 2 2 3 3 1 1 1
7 8 7 7 7 7 6 6 6 6 6 5 5 4 3 2 2 2 2 2 1 1 1 1 2 2 2 2 2 2 1 1 2 2 2 2 2 2 2 2 1 1 0
5 6 6 6 6 6 6 6 6 6 5 5 5 4 3 2 2 2 2 1 1 0 1 1 1 2 2 2 1 1 1 1 1 2 2 1 1 2 2 2 1 0 1
5 4 4 5 6 5 5 5 5 5 5 4 4 4 3 3 1 2 2 2 1 1 1 2 3 4 6 4 3 2 1 2 1 1 1 1 2 2 3 3 2 1 0
4 4 3 4 4 5 5 4 5 4 4 4 4 4 3 1 4 2 1 2 2 2 2 1 2 3 4 4 4 5 4 2 2 2 2 2 2 3 3 3 2 2 1
3 3 3 4 4 4 5 5 5 4 4 4 4 3 3 3 5 3 1 1 2 2 2 1 1 3 2 2 3 3 4 4 2 2 3 3 3 4 4 4 3 3 2
3 3 3 4 4 4 4 5 4 4 4 3 3 3 3 4 5 4 2 3 2 2 2 2 2 3 4 2 2 3 4 4 3 2 3 3 4 4 4 3 3 2 0
2 2 2 3 4 4 4 4 4 4 4 4 4 4 4 4 4 3 2 3 3 3 3 4 3 3 5 4 1 2 3 3 4 4 3 2 3 4 5 3 3 3 2
2 2 2 3 3 4 4 3 4 4 4 4 4 4 5 5 5 3 1 2 3 3 3 4 6 5 5 4 1 2 2 2 3 2 2 1 2 3 2 4 4 4 3
2 3 3 2 2 3 3 4 4 5 5 5 5 5 6 5 5 5 4 1 2 3 3 3 4 5 5 5 3 3 2 3 1 1 2 2 3 3 4 4 5 4 4
3 3 3 3 2 3 4 4 4 4 5 5 5 5 4 4 5 5 5 5 4 3 3 3 4 5 6 5 4 4 3 3 1 2 3 3 4 4 4 4 5 4 4
4 4 5 5 5 5 5 5 4 3 3 4 4 4 3 3 5 6 7 7 6 4 4 6 5 4 5 5 5 3 2 2 3 3 3 3 3 3 3 2 3 2 2
5 5 6 6 6 6 5 5 4 3 2 3 3 3 4 3 3 3 4 5 6 5 4 5 4 3 3 4 3 2 3 4 3 3 3 3 3 3 3 3 3 3 3
6 6 6 6 7 7 7 6 5 6 4 3 2 3 3 3 3 5 3 3 3 3 3 3 3 3 3 3 3 4 3 3 3 3 3 3 3 3 3 3 3 3 4
5 5 5 5 5 6 7 8 13 10 12 11 9 5 6 6 7 7 6 6 4 2 2 3 3 3 3 3 3 3 3 3 3 2 3 3 3 3 3 3 3 4 4
6 5 4 4 5 5 5 6 7 9 12 12 10 8 8 7 7 6 6 6 4 2 3 3 3 3 3 2 2 2 3 3 3 3 3 3 3 3 3 4 4 4 4
6 6 5 4 4 4 4 4 5 5 6 6 7 7 7 7 6 5 4 5 4 3 3 3 3 3 2 2 3 3 3 3 3 3 3 3 3 3 3 3 3 5 4
5 4 4 4 4 4 4 4 5 5 5 5 5 5 5 6 6 4 3 2 3 3 3 3 3 3 3 3 3 3 3 3 3 3 3 3 3 3 3 3 3 3 4
5 6 4 4 4 4 4 4 4 5 5 4 4 4 4 3 4 4 3 2 2 2 2 2 2 3 2 2 2 3 2 3 3 3 3 3 3 3 3 4 4 4 4
4 5 6 4 4 4 4 4 4 4 4 4 4 3 1 3 3 3 2 2 2 2 2 2 2 2 2 2 2 3 3 3 3 3 3 3 3 3 4 4 4 4 4
3 3 3 3 3 4 4 3 3 3 4 5 4 4 2 2 3 3 2 2 2 2 2 2 2 2 3 3 3 3 3 3 4 4 4 4 3 4 4 4 4 4 4
3 4 4 4 3 4 3 3 3 3 4 4 4 4 3 3 3 3 3 3 3 3 3 3 3 3 3 3 3 4 4 4 4 5 5 4 4 4 4 4 4 4 5
4 4 4 4 3 3 3 3 3 4 4 4 4 3 3 3 3 4 3 3 3 3 3 3 3 4 5 5 4 4 5 6 6 5 6 5 4 4 4 4 4 5 5
3 4 3 3 3 3 3 3 3 3 3 3 3 3 3 3 3 3 3 3 3 3 4 3 3 3 4 5 6 6 7 7 6 7 5 4 4 4 4 5 4 5 5
4 4 3 3 3 3 3 3 3 3 3 3 3 3 3 3 3 3 3 3 2 3 3 3 4 4 4 4 6 6 5 5 6 7 6 4 4 4 5 4 5 4 5
Wind_Direction
199 202 208 205 203 202 207 210 207 209 205 206 209 216 222 226 226 228 248 248 251 262 268 266 272 292 287 279 272 266 266 265 266 287 312 330 328 314 310 284 242 225 135
190 192 196 199 197 198 201 204 203 203 205 204 205 207 216 220 221 226 237 240 246 265 290 303 292 284 284 291 284 276 276 269 261 272 295 308 306 299 296 283 277 242 124
186 189 190 192 192 197 198 194 200 203 205 203 200 201 204 207 206 216 230 246 257 275 304 324 319 318 309 318 293 282 273 258 256 256 273 306 304 318 308 302 335 331 281
180 184 185 191 190 190 190 187 194 198 200 197 192 189 188 190 191 203 218 225 231 123 38 14 352 338 327 312 305 320 323 299 266 263 280 301 310 328 316 315 317 334 321
169 178 182 188 181 178 179 181 183 189 192 184 179 179 186 190 178 179 199 185 162 133 97 73 60 50 33 12 353 354 343 313 309 292 297 308 339 328 322 315 314 310 30
162 164 163 162 159 162 167 170 174 179 181 172 172 174 182 162 87 73 254 154 142 140 127 112 114 97 79 70 49 35 15 346 341 331 319 332 338 333 329 312 322 308 305
147 151 157 156 152 156 162 160 167 169 168 165 163 158 148 104 92 93 90 158 132 125 122 125 98 83 86 96 115 117 77 52 19 328 354 349 352 354 332 321 332 327 341
144 149 152 153 149 149 154 156 160 154 150 147 143 140 125 104 103 115 132 143 112 102 99 91 76 71 45 22 74 73 66 56 42 36 30 11 10 353 328 314 308 274 232
127 135 137 146 147 148 149 153 151 145 141 135 125 117 111 102 100 122 158 132 119 102 86 67 58 71 31 358 45 64 65 71 81 81 68 39 19 5 342 326 327 323 338
92 105 119 139 154 155 147 147 141 136 127 121 109 100 96 93 78 71 278 147 124 116 100 85 61 51 36 14 45 58 47 28 27 57 89 85 39 49 30 358 343 332 331
74 88 97 110 132 135 125 123 126 125 118 112 105 96 90 87 85 56 19 48 106 116 106 89 67 63 58 38 28 51 21 334 359 26 50 53 46 34 27 18 360 348 340
68 79 85 88 93 110 114 116 120 123 121 119 111 98 90 87 70 70 57 47 33 80 81 78 78 80 78 62 57 38 348 314 25 34 34 33 28 27 23 16 13 12 2
85 81 81 85 84 84 95 104 108 116 124 126 120 111 101 86 81 78 80 75 67 78 77 81 87 98 109 87 65 24 4 35 37 39 34 28 23 17 6 16 27 25 5
88 81 86 86 83 78 73 77 81 83 95 110 111 110 105 96 87 93 99 99 100 103 103 110 118 99 91 82 87 62 50 42 30 34 26 22 21 22 17 9 358 354 353
97 93 92 90 90 82 71 56 62 56 47 61 85 102 109 101 68 62 82 89 93 100 125 127 111 100 86 73 66 55 46 48 44 31 19 21 23 20 18 11 360 349 353
103 100 98 100 99 101 100 85 62 65 64 56 52 65 81 84 93 83 76 74 78 112 124 98 87 81 73 64 61 63 54 37 21 16 15 16 12 10 11 11 6 2 360
101 101 98 100 104 107 110 111 105 86 76 65 61 68 83 89 87 87 90 90 79 84 90 81 76 69 63 55 45 41 41 35 8 8 12 14 9 6 7 9 7 1 359
103 103 106 104 103 104 104 104 106 107 101 91 77 76 89 92 90 95 113 114 96 89 82 78 72 63 53 42 36 29 25 23 17 13 11 6 360 357 359 1 8 357 348
104 105 101 100 101 101 102 102 101 101 101 101 98 89 97 107 105 103 124 98 93 92 84 74 62 55 45 36 24 13 11 10 5 354 5 355 348 348 351 349 1 357 331
97 97 104 109 108 107 105 104 104 104 103 103 104 108 120 121 110 109 106 92 87 80 75 69 57 45 35 25 11 1 359 4 353 344 352 341 343 344 345 341 345 341 339
103 105 110 107 101 101 101 102 104 108 111 112 109 97 105 125 111 100 91 85 73 64 54 48 46 38 32 17 2 350 346 351 348 341 341 336 339 341 334 334 336 338 344
97 97 97 95 98 99 98 103 108 113 118 118 114 115 129 110 96 94 88 77 70 61 54 44 38 32 20 7 356 349 345 344 342 334 331 329 329 331 334 340 346 343 345
104 104 101 98 100 110 119 115 113 110 109 108 109 108 106 94 91 84 78 70 63 56 54 49 39 32 26 16 7 359 353 348 335 327 321 322 326 333 339 345 340 338 344
108 108 107 107 109 108 107 112 112 111 113 110 107 109 111 103 89 80 75 73 69 62 54 50 48 44 34 20 13 15 13 351 328 319 319 319 326 336 339 339 335 342 342
111 110 111 112 112 107 105 104 106 111 115 117 117 116 111 102 93 85 80 76 73 66 56 48 44 45 38 28 22 21 17 359 346 335 316 317 331 339 336 337 339 341 347
114 115 115 113 110 108 109 108 108 111 113 115 113 108 105 102 95 87 83 82 81 74 60 58 50 44 32 29 30 27 13 356 346 331 315 323 336 348 344 334 339 339 347